#timestamp,LO_Frequency,Hit,StdDev 
1688209215.3,286047001.0,N
1688209235.2,286046998.1,N
1688209255.0,286046999.3,N
1688209255.9,286046999.3,N
1688209275.8,286046998.4,N
1688209295.6,286046998.5,N
1688209315.4,286046999.0,N
1688209335.3,286046997.1,N
1688209355.1,286046995.7,N
1688209375.9,286046995.1,N
1688209395.7,286046995.8,N
1688209415.5,286046995.3,N
1688209435.4,286046995.5,N
1688209455.2,286046995.3,N
1688209475.0,286046997.1,N
1688209475.9,286046997.1,N
1688209495.8,286046997.2,N
1688209515.6,286046998.3,N
1688209535.5,286046999.5,N
1688209555.3,286046996.9,N
1688209575.1,286046999.1,N
1688209595.9,286046999.2,N
1688209615.7,286046999.6,N
1688209635.5,286046999.2,N
1688209655.4,286046996.5,N
1688209675.2,286046999.4,N
1688209695.1,286046995.5,N
1688209696.0,286046995.5,N
1688209715.8,286046995.9,N
1688209735.6,286046995.9,N
1688209755.5,286046995.1,N
1688209775.3,286046997.6,N
1688209795.1,286046998.0,N
1688209815.9,286046997.4,N
1688209835.7,286046997.2,N
1688209855.6,286046996.6,N
1688209875.4,286046997.5,N
1688209895.2,286046997.3,N
1688209915.1,286046996.5,N
1688209916.0,286046996.5,N
1688209935.8,286046999.4,N
1688209955.7,286046997.4,N
1688209975.5,286046997.6,N
1688209995.3,286046995.9,Y
1688210015.2,286046999.6,P
1688210035.0,286046996.9,N
1688210035.9,286046996.9,N
1688210055.8,286046997.1,N
1688210075.6,286046997.2,N
1688210095.4,286046996.6,Y
1688210115.3,286047000.9,P
1688210135.1,286047001.0,N
1688210155.9,286046999.9,N
1688210175.7,286047000.5,N
1688210195.5,286047001.0,N
1688210215.4,286046999.9,N
1688210235.2,286047000.0,N
1688210255.0,286047000.0,N
1688210255.9,286047000.0,N
1688210275.8,286047002.5,N
1688210295.6,286047002.2,N
1688210315.5,286047001.7,N
1688210335.3,286047001.4,N
1688210355.1,286046999.7,N
1688210375.9,286047002.1,N
1688210395.7,286047001.1,N
1688210415.5,286047000.9,N
1688210435.4,286047000.1,N
1688210455.2,286047000.3,N
1688210475.1,286047000.6,N
1688210476.0,286047000.6,N
1688210495.8,286047000.9,N
1688210515.6,286047000.4,N
1688210535.5,286047000.6,N
1688210555.3,286047000.1,N
1688210575.1,286047002.8,N
1688210595.9,286047000.0,N
1688210615.7,286047000.0,N
1688210635.6,286047001.2,N
1688210655.4,286047000.8,N
1688210675.2,286046998.3,N
1688210695.1,286046998.6,N
1688210696.0,286046998.6,N
1688210715.8,286046998.3,N
1688210735.7,286046998.2,N
1688210755.5,286046998.6,N
1688210775.3,286047000.5,N
1688210795.2,286047001.1,N
1688210815.0,286047000.6,N
1688210815.9,286047000.6,N
1688210835.8,286047001.1,N
1688210855.6,286047000.8,N
1688210875.4,286047001.2,N
1688210895.3,286046998.6,N
1688210915.1,286047001.1,N
1688210935.9,286046998.1,N
1688210955.7,286046998.3,N
1688210975.5,286046998.3,N
1688210995.4,286046998.9,N
1688211015.2,286046999.7,N
1688211035.0,286047005.8,Y
1688211035.9,286047005.8,P
1688211055.8,286047005.6,N
1688211075.6,286047007.0,N
1688211095.5,286047004.6,N
1688211115.3,286047003.5,N
1688211135.1,286047002.9,N
1688211155.9,286047004.1,N
1688211175.7,286047004.0,N
1688211195.5,286047004.3,N
1688211215.4,286047003.6,N
1688211235.2,286047004.0,N
1688211255.1,286047003.8,N
1688211256.0,286047003.8,N
1688211275.8,286047003.2,N
1688211295.6,286047004.0,N
1688211315.5,286047004.3,N
1688211335.3,286047001.7,N
1688211355.1,286047004.3,N
1688211375.9,286047001.7,N
1688211395.7,286047001.5,N
1688211415.6,286047001.5,N
1688211435.4,286047001.5,N
1688211455.2,286047001.5,N
1688211475.1,286047001.5,N
1688211476.0,286047001.5,N
1688211495.8,286047001.9,N
1688211515.0,286047001.3,N
1688211515.9,286047001.3,N
1688211535.8,286047001.7,N
1688211555.6,286047002.2,N
1688211575.5,286047002.3,N
1688211595.3,286047000.3,N
1688211615.1,286047000.1,N
1688211635.9,286047000.2,N
1688211655.7,286046999.7,N
1688211675.5,286047000.2,N
1688211695.4,286046999.7,N
1688211715.2,286047000.4,N
1688211735.0,286046999.8,N
1688211736.0,286046999.8,N
1688211755.8,286047002.7,N
1688211775.6,286047002.8,N
1688211795.5,286047002.4,N
1688211815.3,286046999.7,N
1688211835.1,286047000.6,N
1688211855.9,286047000.4,N
1688211875.7,286047000.6,N
1688211895.6,286047000.6,N
1688211915.4,286047002.4,N
1688211935.2,286047000.2,N
1688211955.1,286046999.7,N
1688211956.0,286046999.7,N
1688211975.8,286046999.8,N
1688211995.6,286047000.4,N
1688212015.5,286046999.9,N
1688212035.3,286047000.1,N
1688212055.2,286047002.3,N
1688212075.0,286047001.5,N
1688212075.9,286047001.5,N
1688212095.8,286047003.6,Y
1688212115.6,286047003.7,P
1688212135.4,286047004.2,N
1688212155.3,286047002.9,N
1688212175.1,286047003.6,N
1688212195.8,286047004.3,Y
1688212215.7,286047000.8,P
1688212235.5,286046999.5,N
1688212255.4,286046999.5,N
1688212305.2,286046998.1,E
1688212315.1,286047000.1,N
1688212335.9,286047001.7,P
1688212355.7,286047002.6,P
1688212375.6,286046999.9,N
1688212395.4,286047000.2,N
1688212415.2,286046999.7,N
1688212435.1,286047002.2,N
1688212436.0,286047002.2,N
1688212455.8,286047002.4,N
1688212475.6,286047002.5,N
1688212495.5,286047002.1,N
1688212515.3,286047002.0,N
1688212535.2,286047002.2,N
1688212555.9,286047002.1,N
1688212575.7,286047001.6,N
1688212595.6,286047004.2,Y
1688212615.4,286047002.3,P
1688212635.3,286046999.9,N
1688212655.1,286047000.8,N
1688212656.0,286047000.8,N
1688212675.8,286046998.3,N
1688212695.7,286046998.1,N
1688212715.5,286046998.6,N
1688212735.3,286046999.3,N
1688212755.2,286046999.0,N
1688212775.0,286046999.3,N
1688212775.9,286046999.3,N
1688212795.8,286046998.6,N
